Wind_Speed
32 32 33 34 35 35 35 35 35 36 36 37 37 38 39 40 40 41 42 43 44 44 45 46 47 48 49 50 53 55 57 58 59 60 61 62 63 64 65 65 66 67 67 68 69 69 70 71 71 72 72 73 73 73 73 72 72 72 71 71 70 69 67 67 67 67 68 68 69 70 71 72 73 75 75 75 75 76 76 78 77 76 76 75 74 73
33 34 35 35 35 36 36 36 36 37 37 37 38 39 40 41 42 43 44 44 45 46 47 48 49 50 51 53 55 58 59 60 61 62 63 64 65 66 67 68 69 71 72 72 73 73 74 74 75 76 77 77 77 78 78 78 77 76 75 75 75 74 73 71 70 70 70 70 71 72 73 73 73 74 77 78 79 78 78 79 79 79 78 76 75 75
34 36 37 37 38 38 38 38 38 38 38 39 40 41 42 43 44 43 44 45 47 48 49 50 51 53 54 55 57 60 61 62 63 64 65 65 67 68 70 72 73 75 75 76 77 78 78 78 78 79 79 80 80 81 81 82 81 80 79 79 79 79 78 77 76 74 73 73 73 74 76 76 76 76 77 79 81 82 81 80 80 80 79 77 75 75
37 38 38 38 38 39 38 38 38 38 39 40 41 42 42 44 45 44 44 46 48 49 50 51 52 54 56 57 59 61 63 64 64 64 65 67 69 71 73 76 77 78 79 79 80 81 81 80 80 80 80 80 80 81 81 82 82 82 82 82 82 82 82 81 80 79 77 76 75 76 77 79 80 79 79 81 82 84 84 83 82 82 81 79 76 74
37 38 38 38 38 38 38 38 38 39 40 40 41 42 43 44 46 47 47 47 48 50 52 54 55 57 59 60 61 63 64 65 66 67 69 72 74 77 79 80 81 82 82 82 82 82 82 82 83 84 84 84 83 83 83 83 83 84 84 85 85 86 86 86 85 83 81 80 78 77 78 80 82 83 83 83 84 86 86 85 85 84 83 82 79 77
36 37 37 37 38 38 38 38 39 40 40 42 42 43 44 45 45 47 48 49 50 52 54 57 60 60 60 62 63 64 67 68 70 72 74 76 78 80 82 82 83 83 83 83 82 82 83 85 87 89 90 90 89 88 88 88 88 88 88 89 89 90 90 91 90 89 88 86 84 81 80 81 83 86 86 86 87 88 89 88 87 87 87 86 83 80
36 36 37 38 38 39 39 39 40 40 41 42 43 44 45 46 46 47 48 50 51 53 55 58 61 62 63 66 67 68 71 72 73 75 76 77 79 81 83 84 84 84 83 83 83 84 87 89 91 93 93 92 91 91 90 90 91 91 91 92 92 92 92 92 93 92 92 92 91 89 86 84 84 87 89 89 89 90 90 90 89 89 89 89 88 84
35 36 37 38 38 38 39 40 40 41 42 43 44 45 46 46 47 48 48 50 52 54 57 60 64 66 68 70 72 73 74 74 75 77 78 79 80 82 83 85 85 84 84 84 86 88 90 92 93 93 93 91 91 91 89 88 88 89 88 89 89 90 90 90 91 91 91 91 92 93 92 90 88 89 91 92 92 92 92 91 91 91 90 91 91 88
35 36 37 37 38 39 40 42 43 43 44 44 45 46 47 47 48 49 50 52 54 56 58 61 65 68 70 71 74 74 74 76 77 79 80 80 81 82 84 84 84 84 85 86 89 92 94 94 94 93 93 91 89 88 87 84 83 82 81 81 82 82 82 83 85 87 88 89 90 91 92 93 92 91 92 95 95 95 95 93 92 91 91 91 92 91
35 36 37 38 39 40 41 43 45 45 45 46 47 47 48 49 50 51 53 56 58 59 60 62 64 68 71 71 73 75 75 77 79 80 82 81 81 83 84 84 84 85 87 90 92 93 93 93 92 92 90 89 86 84 81 78 75 73 71 71 71 71 71 73 75 78 81 83 85 87 89 92 94 93 93 96 97 97 97 97 94 91 91 90 90 91
35 37 38 39 41 42 43 45 46 46 47 48 49 50 51 53 54 55 56 58 59 59 59 61 64 69 73 73 74 76 77 78 79 80 82 83 84 85 86 86 86 87 89 92 94 93 92 90 89 87 85 83 80 76 72 69 65 61 58 57 56 56 56 58 60 62 63 65 68 71 75 80 86 91 93 95 98 99 99 100 98 94 92 91 90 88
37 39 39 41 43 44 45 47 48 49 51 52 53 55 55 55 55 56 57 58 59 60 60 62 65 69 72 74 76 76 77 78 79 81 84 86 87 88 88 88 87 88 90 92 93 92 90 88 84 81 78 74 71 65 60 56 51 48 46 45 45 44 44 46 48 49 49 50 51 53 55 59 66 75 84 91 96 99 100 101 101 99 95 93 92 90
39 42 43 45 46 47 49 50 51 52 53 54 55 56 57 58 57 58 59 60 61 61 61 63 66 69 71 74 76 76 78 80 81 84 87 88 89 89 89 88 87 87 88 89 89 88 86 84 80 75 70 65 59 52 47 44 43 42 41 39 39 38 38 40 41 43 44 45 46 47 47 47 50 56 66 76 87 95 98 100 101 102 100 96 93 92
43 45 46 48 49 49 51 52 52 53 54 55 57 58 59 60 61 62 64 64 65 65 63 65 68 71 73 75 76 77 78 81 83 86 88 89 91 91 89 87 85 84 86 87 86 83 81 79 74 67 61 56 49 43 40 40 40 40 38 36 35 33 33 34 35 36 38 40 42 43 43 43 45 47 52 59 70 82 91 96 98 99 100 99 96 92
45 46 47 48 49 49 50 51 53 54 56 57 58 59 60 61 63 65 66 68 71 72 71 70 72 74 76 76 77 78 79 82 84 85 87 89 91 90 89 87 85 85 85 85 83 79 75 71 65 58 52 48 44 41 41 40 39 38 37 34 32 31 30 31 32 32 33 34 36 39 40 41 42 44 45 48 54 65 76 86 93 95 96 97 97 95
46 45 47 48 48 48 50 51 53 54 55 56 58 59 60 61 63 65 67 69 72 76 76 74 74 76 76 77 78 78 80 82 81 82 87 92 93 91 89 87 85 83 83 81 78 73 67 61 55 50 46 42 41 41 42 41 39 38 37 35 33 31 30 29 30 30 29 30 31 33 35 37 39 41 42 42 44 50 58 69 79 87 91 92 93 93
48 46 46 47 48 49 51 52 53 54 55 57 58 60 61 62 64 66 68 70 72 76 77 75 77 79 78 78 78 79 81 83 83 87 93 96 94 91 89 87 83 80 79 75 70 64 58 53 47 44 41 40 40 40 41 41 39 39 39 38 36 34 34 32 30 29 29 29 29 30 31 33 35 36 38 39 40 41 45 51 60 70 78 84 86 88
51 49 47 49 50 51 52 53 54 55 56 58 59 60 61 64 67 69 70 72 74 77 78 78 80 82 79 78 79 81 84 87 89 94 96 94 92 90 89 85 78 74 74 68 59 53 50 46 42 40 38 38 40 41 40 40 40 40 41 41 40 38 38 37 34 31 29 30 30 29 29 30 32 34 35 36 36 37 38 40 45 52 59 67 73 78
52 52 51 50 51 52 53 54 56 56 57 58 59 60 62 65 67 68 68 71 75 79 82 82 82 82 79 78 81 85 88 90 91 94 95 95 93 90 87 82 75 69 66 59 51 46 45 43 39 38 37 37 39 40 39 39 39 40 41 44 44 42 42 41 39 36 33 32 32 30 29 29 30 32 33 34 34 34 35 35 37 40 45 51 58 65
52 53 52 51 52 52 53 54 56 57 57 58 60 62 63 65 67 68 68 69 73 79 84 85 85 83 79 80 86 89 90 92 93 95 96 95 92 87 81 77 73 66 58 51 47 44 42 39 37 36 36 37 39 39 37 37 39 40 42 45 46 45 44 43 42 40 37 35 34 32 30 28 29 30 32 33 33 33 33 34 35 37 39 42 47 53
52 54 53 53 52 52 53 54 55 55 57 59 61 63 65 66 69 70 68 67 71 77 82 86 88 85 80 84 89 89 91 93 94 95 95 92 89 83 75 70 65 59 50 44 43 42 40 37 35 35 36 37 38 37 36 35 37 39 41 44 46 47 45 42 41 40 37 35 33 32 31 28 28 29 31 31 32 32 33 34 36 37 38 39 40 43
53 53 54 54 54 53 52 53 55 55 56 59 61 64 66 68 70 71 70 69 70 75 80 85 89 87 83 85 88 90 93 94 93 94 93 89 84 77 71 64 56 50 45 40 38 39 37 35 34 35 36 37 36 34 34 35 36 38 41 43 45 46 43 40 38 37 35 33 31 31 29 28 27 27 29 30 30 31 32 34 35 36 38 38 38 38
54 53 54 54 55 54 54 55 57 58 58 60 62 63 65 67 69 70 71 73 74 77 80 84 89 89 85 86 89 92 94 94 93 93 90 85 79 71 65 57 50 46 42 37 35 35 34 34 35 35 35 36 35 33 35 36 37 38 40 41 42 42 40 37 35 34 33 31 29 28 28 26 26 27 27 28 28 29 30 31 32 33 33 34 33 33
54 54 54 55 55 54 55 57 58 59 59 60 62 63 64 66 68 69 71 75 78 81 83 86 91 92 89 88 92 94 95 95 94 90 85 80 75 66 58 52 47 43 39 36 35 33 32 32 34 35 36 35 33 33 36 38 39 39 39 38 39 39 37 35 33 32 30 28 27 27 27 26 26 27 27 28 28 28 28 29 29 29 28 28 28 28
55 55 55 57 58 57 58 58 59 58 58 59 62 65 67 68 70 71 72 76 81 84 85 88 93 95 93 91 94 96 96 95 92 87 82 75 69 61 53 47 43 39 36 35 34 32 32 32 34 35 36 35 34 35 37 38 39 38 37 36 36 36 35 33 32 31 29 28 27 26 26 27 27 27 27 28 28 28 28 27 27 27 27 27 27 27
56 56 56 57 59 60 59 60 60 61 61 61 63 67 69 70 72 73 75 78 83 86 86 88 93 97 95 94 97 98 97 94 90 86 79 70 62 54 47 43 39 36 34 33 32 32 32 33 34 35 36 36 35 36 37 37 37 36 34 33 34 34 33 32 32 32 31 29 28 27 27 27 28 28 28 28 28 28 28 28 28 28 28 28 28 28
57 58 57 55 56 57 58 59 60 61 62 64 64 66 69 71 73 75 76 79 83 88 89 88 92 98 98 98 100 99 96 93 89 84 76 67 58 49 42 39 36 34 33 32 32 32 33 34 35 35 35 35 35 35 35 36 36 35 33 32 32 33 32 32 32 32 32 32 30 29 29 29 29 29 29 28 29 29 29 29 29 29 30 30 31 31
58 58 58 55 54 56 57 58 60 62 63 65 65 65 68 72 76 78 78 79 84 89 91 90 92 96 99 101 101 99 95 91 87 81 72 63 54 45 40 38 35 33 32 32 32 32 34 35 35 35 34 34 33 33 34 34 34 35 34 33 33 33 32 32 32 32 32 33 33 32 32 32 31 30 29 30 30 30 30 31 31 31 32 33 33 33
59 59 59 57 56 56 57 59 61 63 64 64 65 65 68 72 77 79 79 81 84 88 91 93 93 96 100 102 100 96 92 89 85 77 69 59 48 41 38 36 34 34 33 32 32 33 35 36 36 35 34 34 33 33 33 33 33 34 35 34 34 34 33 33 33 33 33 34 34 34 34 34 33 32 31 31 32 32 32 33 33 34 35 35 35 36
60 60 60 60 58 58 60 60 61 63 64 64 65 67 70 73 76 78 78 80 84 87 89 92 94 97 100 100 98 93 89 86 81 73 64 55 44 36 34 34 33 33 31 31 32 33 34 35 35 35 35 35 35 34 34 34 34 35 36 36 36 35 34 34 33 34 35 36 35 35 36 36 35 35 34 33 34 34 34 34 35 36 36 37 38 39
61 61 61 62 61 61 62 61 62 64 65 65 66 69 71 73 76 79 79 79 85 89 90 92 96 99 100 99 96 93 87 83 78 69 60 52 40 32 32 33 32 31 29 29 31 32 33 34 35 35 36 35 35 35 36 36 36 36 37 37 37 36 35 34 33 34 35 36 36 36 37 37 37 36 36 36 36 36 36 36 36 37 37 39 40 41
63 63 63 65 65 64 64 63 63 65 66 68 69 71 72 73 76 79 79 80 86 91 92 95 98 101 101 99 97 93 86 81 76 66 57 50 38 29 28 29 29 29 29 29 30 32 34 36 36 36 36 36 37 37 38 39 39 39 38 37 37 37 37 35 34 33 34 34 35 36 37 37 37 37 37 37 36 36 37 37 37 38 38 40 42 43
65 65 66 68 68 67 66 66 65 66 68 70 69 71 74 76 77 80 80 81 85 89 92 96 98 99 100 99 97 94 87 81 75 64 55 49 40 30 26 26 26 27 28 30 32 33 36 38 38 38 38 38 39 40 41 42 43 42 40 38 36 37 37 36 35 34 33 34 35 36 36 37 37 37 36 36 36 35 36 37 37 38 39 41 42 43
67 68 69 70 70 70 69 68 67 67 70 70 70 72 76 78 79 81 82 82 85 87 90 94 96 96 98 97 96 94 88 81 74 62 52 47 42 36 32 31 31 31 31 32 33 35 37 38 38 39 40 40 41 43 44 44 44 44 42 40 39 38 37 36 35 34 33 34 35 36 36 36 36 35 34 33 33 34 35 36 36 37 38 39 40 41
70 70 71 72 72 72 71 71 70 70 71 72 72 75 77 77 80 82 81 82 86 89 91 93 94 95 96 96 93 91 87 79 69 59 48 42 41 40 37 36 37 38 37 36 36 37 38 39 40 41 41 42 42 43 44 45 45 44 42 41 40 39 38 36 34 34 33 34 34 35 36 36 35 33 31 29 30 32 32 32 32 34 35 36 38 39
72 72 73 74 73 73 73 73 72 71 72 74 74 76 78 79 82 86 85 85 89 92 93 93 94 94 96 96 92 89 85 76 63 53 47 42 40 41 41 41 41 41 42 42 42 43 44 43 43 42 42 43 44 45 46 47 46 46 44 43 41 39 38 36 34 34 33 33 33 34 35 35 34 31 28 26 27 28 27 28 29 30 32 34 36 38
74 73 74 75 75 75 75 74 72 72 73 75 75 77 80 82 84 88 90 90 91 92 92 93 95 96 97 96 91 88 85 75 59 46 41 40 40 41 43 45 46 46 46 47 47 47 47 46 45 44 44 45 47 49 49 49 47 46 45 44 41 39 37 36 34 34 32 31 31 32 33 34 32 29 25 24 24 24 25 26 28 30 32 34 35 36
75 74 74 74 75 76 76 75 75 74 74 75 76 78 80 81 83 87 90 90 90 91 91 94 96 96 97 96 91 87 86 78 61 44 36 35 37 40 42 45 49 51 51 52 51 49 48 48 47 48 50 51 52 52 52 51 48 46 44 43 41 39 36 34 34 33 30 29 30 30 31 31 28 24 22 20 21 23 25 28 30 31 32 32 31 31
77 77 76 75 75 76 76 75 74 74 74 75 77 78 80 82 85 88 89 89 89 90 93 95 96 96 96 94 90 87 85 81 68 50 37 33 36 40 44 46 50 53 54 55 54 52 51 51 51 52 54 55 55 55 53 51 48 46 43 41 39 37 34 33 33 31 28 28 28 29 29 26 23 20 18 18 20 24 26 28 29 29 28 27 25 24
79 78 77 76 75 75 75 74 72 71 74 77 79 79 81 83 86 89 91 92 92 93 94 96 96 96 95 93 89 86 83 80 73 58 44 39 39 43 48 51 53 54 54 54 54 53 53 54 55 56 56 56 55 53 51 49 47 45 42 38 36 34 32 31 31 28 26 26 27 26 24 21 18 17 17 19 22 25 25 25 24 23 21 19 17 16
80 79 78 77 76 75 75 75 72 70 73 77 79 80 83 85 87 89 92 94 95 95 95 95 95 95 94 92 88 84 80 77 72 62 51 46 45 47 52 54 54 54 54 54 54 55 55 57 57 57 56 54 53 51 49 47 45 43 40 36 33 30 29 29 27 25 23 24 24 22 19 16 15 15 18 21 23 23 22 20 17 15 12 10 10 11
81 80 79 78 77 75 74 74 72 72 75 78 80 82 85 87 89 90 92 93 95 95 95 95 95 94 93 91 87 83 79 75 69 61 53 50 50 52 54 54 53 53 53 54 56 58 59 58 57 56 55 53 51 49 46 44 41 38 34 31 28 26 26 25 23 21 22 22 21 18 14 13 14 16 18 20 20 18 16 12 8 6 5 6 8 10
82 81 80 79 78 76 75 76 75 75 78 81 82 84 85 87 89 91 92 93 94 95 95 95 94 93 92 90 86 81 78 74 68 60 52 49 51 53 53 53 53 53 53 54 57 58 58 56 54 54 53 52 49 47 44 41 37 33 28 24 22 22 22 20 19 19 20 19 16 13 12 12 14 16 17 16 14 10 5 3 3 3 3 5 7 8
83 82 80 80 80 79 77 77 77 77 80 83 84 86 87 88 89 91 93 94 94 95 95 95 94 92 90 88 86 81 78 74 69 61 52 48 50 52 52 53 53 52 52 55 58 58 55 53 53 52 51 49 47 45 42 38 33 27 22 18 17 18 16 15 16 17 17 15 12 10 10 12 13 14 13 10 5 2 4 5 4 2 2 4 6 8
84 83 81 79 81 80 78 79 80 80 82 84 84 86 88 89 89 91 93 93 94 95 95 94 93 91 88 87 85 82 78 74 69 61 53 48 49 50 51 52 53 52 52 56 59 56 53 52 52 51 48 46 44 42 39 34 27 20 15 13 13 13 11 12 14 14 13 10 9 9 10 11 11 10 7 2 4 6 6 5 3 1 3 6 9 10
84 84 83 81 81 81 80 82 83 82 83 84 85 86 88 90 90 91 92 93 93 94 95 94 93 91 88 85 83 81 77 74 70 63 54 49 49 50 49 51 52 51 52 56 58 55 52 51 51 49 47 43 40 38 35 30 22 16 12 11 10 8 8 10 12 11 8 7 7 8 10 9 7 6 1 6 7 7 6 4 2 2 5 8 11 12
85 85 84 82 81 81 81 82 82 81 81 82 84 85 87 88 88 90 91 92 93 94 95 93 92 90 87 84 82 80 76 73 70 64 56 49 49 50 49 50 52 52 52 56 58 56 52 50 49 47 45 41 37 34 31 26 21 16 14 11 8 6 8 11 10 7 5 6 7 9 8 5 3 0 5 8 7 6 5 2 1 3 6 8 10 11
85 86 86 84 82 81 82 83 83 80 78 80 81 83 85 87 87 88 91 92 93 94 95 93 91 89 86 83 80 78 75 71 69 66 58 51 48 49 49 49 52 53 52 55 58 56 53 50 48 45 43 40 35 30 27 24 20 16 13 10 8 8 10 10 7 4 4 5 8 8 4 1 2 5 8 6 5 5 3 1 1 4 6 8 10 11
87 87 87 86 84 83 84 84 83 81 79 79 81 83 85 87 89 89 91 93 94 95 96 95 92 88 85 82 79 76 74 71 68 65 60 53 49 50 49 49 51 52 52 54 57 57 53 50 47 44 40 38 35 30 25 22 18 14 11 10 9 11 11 8 4 3 4 7 8 5 2 4 5 8 8 5 4 4 2 1 3 5 7 9 10 11
87 88 89 89 88 87 86 85 85 85 84 83 84 85 87 89 91 91 93 95 96 96 97 97 94 89 84 81 78 75 73 70 67 65 61 53 49 49 50 48 48 49 50 53 55 56 53 49 46 43 39 35 33 30 25 21 17 14 12 11 12 12 10 5 3 3 5 9 8 1 5 5 6 8 6 3 3 3 2 2 5 6 8 9 11 12
88 88 89 89 89 89 88 85 84 86 86 86 86 87 88 90 92 93 95 97 97 97 98 97 95 91 87 82 78 75 73 70 67 65 61 55 49 48 50 50 48 48 49 51 53 54 52 48 45 42 38 34 31 28 25 21 17 15 14 14 14 12 7 3 3 5 8 10 5 4 6 4 4 5 4 1 1 4 4 2 5 6 8 9 12 13
Wind_Direction
328 330 332 333 333 330 329 329 327 325 323 321 319 317 316 316 317 315 314 313 312 311 310 310 310 312 314 314 313 312 311 310 310 309 309 309 308 308 307 306 305 304 303 302 301 299 298 296 294 292 290 288 286 285 283 281 278 276 273 271 269 268 267 267 266 265 263 262 260 258 256 255 255 255 254 254 254 255 257 258 259 259 259 258 258 258
332 334 335 334 333 332 331 330 327 325 323 321 321 320 318 317 318 317 314 313 312 312 313 313 314 315 315 315 313 312 312 312 312 312 312 311 311 310 309 308 308 307 306 304 303 302 300 298 296 294 292 289 287 285 282 280 278 277 275 272 270 268 267 266 265 264 264 263 262 260 258 256 254 254 254 254 253 253 254 255 257 258 258 258 257 257
335 335 335 334 334 333 332 330 327 325 324 324 323 321 320 318 318 318 316 316 316 316 316 315 315 314 314 314 314 314 314 314 314 314 313 312 311 311 311 310 310 308 307 306 304 302 301 299 297 294 292 290 287 285 283 281 279 277 276 274 272 270 269 267 266 264 263 262 262 261 259 257 255 253 253 253 253 254 254 254 254 255 256 257 255 254
336 335 335 333 333 332 330 328 326 325 325 324 321 319 318 318 319 319 319 319 318 318 317 314 314 314 314 315 315 316 316 315 314 314 313 313 313 313 313 312 311 309 308 306 303 301 300 298 295 293 291 289 287 285 282 281 279 278 277 276 274 273 271 269 267 265 263 261 259 259 259 258 256 254 252 252 251 252 252 252 252 253 253 254 254 252
336 334 333 332 331 330 330 329 328 327 325 323 320 318 319 321 321 321 320 320 319 318 316 314 315 316 316 316 317 318 317 317 317 317 316 316 316 315 314 313 311 310 308 305 303 301 299 297 295 293 291 289 287 285 282 280 279 278 277 276 275 274 272 270 268 267 264 261 259 258 258 258 256 254 252 252 251 251 251 251 251 250 251 251 252 252
336 334 332 331 331 332 331 331 330 328 325 323 323 323 322 323 322 321 321 321 321 320 319 317 316 316 317 318 320 320 319 320 321 319 318 317 315 314 312 311 310 309 307 305 303 301 299 298 297 296 294 292 290 288 285 283 281 279 277 275 274 272 271 270 269 267 266 263 261 259 258 257 256 255 252 251 250 251 251 251 250 249 248 249 249 250
335 334 333 333 333 333 332 331 330 327 325 325 326 326 324 323 323 323 323 322 322 321 319 317 316 318 321 322 322 323 322 322 321 318 316 315 314 313 311 310 309 308 307 305 303 301 300 299 298 297 296 295 293 291 289 287 285 282 280 277 275 272 270 268 267 267 266 265 263 261 259 257 255 254 252 250 249 248 249 249 250 249 248 248 248 248
336 334 334 334 333 332 332 331 329 329 328 328 327 326 324 324 323 324 323 321 321 321 320 319 320 322 324 325 325 324 322 321 319 317 316 315 315 313 311 310 310 309 308 306 304 302 300 299 298 298 297 296 294 292 291 289 287 285 283 281 278 275 272 269 267 266 265 264 263 262 260 258 254 252 250 250 248 247 246 245 245 246 247 247 247 246
337 335 334 335 333 332 331 332 332 332 331 329 327 326 323 323 322 322 322 321 321 323 324 325 325 323 324 326 323 322 321 321 319 317 317 317 315 313 311 311 312 311 310 307 304 302 301 301 300 300 299 297 296 294 293 292 290 288 286 284 282 279 276 273 270 268 265 264 263 262 261 259 256 251 248 247 246 246 245 244 242 241 242 243 245 246
339 337 336 336 335 334 333 333 334 332 330 328 327 326 324 324 325 324 323 323 324 326 326 326 326 323 323 324 322 322 323 322 321 319 318 317 315 313 313 313 313 312 310 306 304 303 302 303 303 302 301 300 298 297 297 295 293 291 288 286 284 282 280 278 275 272 270 267 265 263 261 260 257 254 248 245 244 243 243 243 242 240 239 239 240 242
340 339 339 339 337 336 335 334 333 332 330 330 329 329 329 328 327 326 325 324 323 324 325 324 324 322 322 322 322 323 325 324 321 319 317 316 314 314 314 314 314 312 308 305 304 303 303 304 304 303 302 301 300 300 299 297 295 293 291 289 288 286 285 282 279 277 274 272 270 267 263 260 258 255 251 246 244 242 242 242 242 240 239 238 238 238
343 341 341 341 339 337 336 335 334 334 333 332 331 330 329 328 327 326 324 322 321 322 324 323 322 320 320 321 322 323 323 321 319 317 315 314 314 314 314 314 313 311 308 306 305 306 306 306 306 304 302 302 301 301 299 297 297 296 296 295 293 290 286 283 280 279 277 275 274 271 269 265 261 257 253 249 245 243 242 241 242 241 240 239 238 238
344 344 343 343 341 339 337 336 335 334 333 332 330 328 327 326 326 325 323 321 320 322 324 322 320 319 319 320 320 321 320 318 317 316 314 314 315 316 316 315 314 311 309 307 306 307 308 307 306 305 304 303 303 302 301 301 301 300 300 300 297 294 289 284 281 279 278 276 275 274 272 270 266 263 258 253 249 246 244 242 242 242 242 240 239 239
346 346 344 342 342 340 338 335 335 334 332 331 330 328 326 325 326 325 324 322 321 322 324 323 321 320 319 320 322 321 320 318 318 317 315 316 318 318 317 316 313 310 307 306 306 308 308 307 307 307 306 305 305 305 305 305 305 304 305 303 300 297 293 289 285 281 278 276 274 273 273 271 270 268 265 260 255 250 247 245 245 244 244 243 241 240
346 344 343 342 341 339 336 334 333 333 332 331 329 327 326 327 327 326 325 325 323 323 325 325 324 323 323 324 324 322 321 321 320 317 316 317 319 318 317 315 312 308 307 307 309 310 309 308 308 308 307 307 308 309 309 308 307 308 307 305 302 300 296 293 289 284 280 277 274 273 272 272 271 270 269 266 261 256 252 249 248 248 248 247 244 243
345 343 342 341 339 336 334 333 334 332 330 329 328 328 327 327 325 324 324 326 326 324 324 325 324 323 324 325 325 323 323 323 321 317 317 319 320 319 317 314 311 310 309 310 311 311 309 308 308 308 308 307 308 310 310 310 310 310 309 308 306 304 302 298 294 290 285 281 277 274 272 271 270 270 270 269 266 261 256 253 251 250 250 251 249 247
346 343 340 338 337 336 334 334 333 332 330 330 330 328 327 325 325 325 326 326 325 323 323 325 324 324 327 328 327 326 325 325 322 320 321 322 322 320 317 315 314 313 313 314 313 310 309 309 308 307 306 307 308 310 311 311 311 311 311 311 310 310 308 305 301 297 293 289 284 280 276 272 269 269 269 269 268 265 261 258 254 252 251 252 252 250
345 343 340 338 338 338 336 334 333 333 333 331 329 328 326 326 327 328 328 327 325 324 324 325 326 327 331 331 329 328 327 327 325 324 324 324 322 319 318 318 318 316 316 316 314 311 309 309 308 306 306 308 310 312 313 312 311 311 311 311 312 312 310 308 307 303 299 296 293 289 283 276 271 268 267 267 268 267 265 261 258 256 253 252 253 253
344 343 342 340 339 338 337 335 333 335 334 330 328 328 328 329 328 329 329 329 328 326 325 326 327 330 334 332 330 330 329 328 327 325 325 324 322 321 320 319 319 318 317 316 314 310 309 309 307 305 306 309 311 313 314 312 310 310 310 309 310 311 309 309 308 306 302 299 296 294 288 280 273 268 265 264 264 264 264 262 259 258 256 254 253 254
344 343 343 341 339 337 337 336 334 333 332 329 329 329 330 329 328 329 330 331 329 327 326 325 327 334 337 334 332 332 331 328 327 326 325 324 322 322 322 320 320 320 318 314 311 308 306 306 305 305 307 309 311 313 314 313 310 309 308 307 308 308 307 306 305 304 302 299 296 294 290 283 274 268 265 262 261 260 259 259 258 257 257 257 255 255
343 343 343 343 340 338 336 336 334 332 330 330 331 331 330 329 328 329 330 331 330 329 327 326 329 336 339 335 334 333 330 328 327 326 325 324 324 324 323 322 321 320 318 313 309 306 305 304 302 303 306 308 310 311 311 310 307 305 304 303 304 305 305 303 301 299 298 297 294 291 289 282 273 267 264 261 259 258 257 257 256 256 258 259 258 257
343 342 343 342 341 339 337 336 335 334 333 333 334 332 330 330 329 329 329 330 331 330 329 328 330 337 340 337 334 332 330 328 328 326 326 326 327 326 325 324 323 320 317 313 307 304 305 304 302 303 305 307 309 308 306 305 303 301 300 299 301 303 304 303 300 297 297 295 291 287 285 280 273 266 263 260 258 257 256 257 258 258 259 261 262 261
342 341 342 341 340 339 338 337 338 338 336 337 337 333 330 330 330 329 330 332 332 330 330 330 331 336 340 337 333 332 330 329 329 329 329 330 329 328 326 326 323 318 317 315 309 305 304 304 302 302 304 306 306 302 301 302 302 301 300 300 301 303 305 304 302 299 296 294 289 284 282 279 274 269 265 262 259 258 258 258 260 262 263 264 264 264
342 341 341 341 340 339 339 340 341 341 337 335 335 333 330 331 330 330 332 333 332 331 333 334 333 336 340 337 333 332 331 331 332 331 331 331 330 329 328 327 324 322 320 318 313 308 306 304 302 302 303 305 301 296 295 297 299 301 301 302 302 303 305 305 304 301 298 293 288 283 280 278 274 270 266 264 263 261 260 259 261 264 265 264 263 263
342 340 339 338 339 340 341 340 341 341 338 334 333 333 332 332 331 331 332 334 333 333 336 336 334 337 340 337 333 334 334 334 334 334 334 333 331 330 330 329 328 326 323 319 314 310 307 304 302 302 303 303 298 293 293 295 298 300 302 303 304 305 305 305 305 303 300 296 289 283 279 277 273 269 265 263 262 261 261 260 260 261 262 263 262 260
343 341 339 337 337 338 338 338 338 338 337 335 334 334 334 332 331 332 334 336 334 334 337 339 336 337 340 337 334 336 336 336 336 336 336 335 331 330 330 330 330 328 324 318 312 308 305 303 302 301 301 300 296 294 296 299 301 302 302 302 304 305 306 306 305 304 303 298 293 286 282 278 275 270 265 262 259 257 257 256 256 257 257 259 260 259
345 343 341 338 336 335 335 335 335 335 335 336 336 335 333 332 332 333 336 337 335 334 339 341 338 338 340 337 336 338 339 338 337 336 336 334 332 331 330 330 330 326 321 315 310 308 305 303 302 301 299 298 296 297 300 303 306 307 305 302 302 303 305 305 304 304 302 299 295 290 286 281 277 272 267 263 259 256 254 253 253 254 255 257 259 261
346 344 343 340 337 335 335 335 335 335 335 336 336 335 333 333 333 335 338 339 338 337 339 341 340 340 340 338 339 341 341 339 337 337 336 336 334 331 328 327 325 319 314 310 308 308 307 306 304 302 300 299 299 301 304 307 309 310 310 306 302 301 302 303 303 302 300 298 296 293 289 285 281 276 271 266 262 259 256 254 254 254 255 257 259 262
346 345 344 342 339 337 336 336 337 336 336 335 335 334 334 336 335 336 340 342 340 339 340 340 341 341 340 340 342 342 340 338 337 338 338 336 335 330 324 321 319 315 311 308 308 310 310 310 308 305 303 303 304 305 307 310 312 313 312 310 306 303 302 302 302 301 299 297 295 294 291 287 283 279 275 270 266 263 260 258 257 257 257 259 261 264
346 346 345 344 342 339 338 338 338 337 336 335 335 335 337 338 337 338 343 343 339 339 341 340 341 343 342 342 342 342 341 338 337 338 337 335 334 330 323 317 312 310 309 308 310 311 311 312 311 309 308 307 308 308 309 312 313 314 314 312 309 307 304 302 302 301 299 297 295 293 290 287 284 281 278 274 271 268 265 262 261 260 261 262 264 266
347 346 345 345 344 342 341 340 338 337 336 336 338 338 338 339 339 340 344 344 340 341 343 342 343 344 344 343 343 343 342 339 339 340 337 335 337 333 323 315 309 309 312 313 313 314 314 313 312 311 310 310 310 310 311 312 313 314 314 313 311 309 305 303 301 300 299 298 295 292 289 286 284 282 279 277 274 272 270 268 266 265 266 266 267 268
347 346 346 346 346 344 342 342 340 338 338 339 340 339 338 340 342 342 345 346 342 342 344 344 344 345 345 344 343 343 344 342 341 342 339 337 340 336 323 315 310 311 315 317 317 317 316 315 313 313 312 311 311 311 312 313 313 314 313 312 311 310 306 303 301 299 299 298 295 292 290 288 285 283 280 278 275 273 271 269 268 267 267 267 268 269
348 347 347 346 347 345 343 342 341 339 339 341 340 338 338 341 344 345 347 347 344 343 344 344 345 345 344 344 344 345 346 345 344 345 341 336 338 338 332 326 321 318 317 317 317 316 315 314 314 313 313 312 312 312 312 313 313 313 312 311 310 308 305 303 301 299 298 297 295 293 292 289 286 283 281 279 276 274 271 269 267 266 266 267 268 270
349 348 347 346 347 346 344 343 342 340 340 340 340 339 341 343 344 346 348 347 344 345 345 345 346 345 344 344 346 347 348 348 347 346 342 336 335 337 338 336 332 327 322 318 316 315 314 314 313 313 314 314 313 313 312 313 313 312 312 312 310 307 304 301 300 299 297 295 295 294 293 291 286 282 279 278 276 273 270 269 269 268 268 269 270 270
350 349 348 347 346 346 345 344 344 342 340 340 341 341 342 344 344 346 349 348 345 346 347 346 346 344 344 345 347 348 349 350 350 347 342 339 338 338 338 337 334 331 326 323 320 319 318 318 317 316 316 315 314 313 313 314 314 314 313 312 310 306 304 301 298 296 294 294 295 295 295 293 287 281 278 276 274 272 271 271 271 271 270 269 268 268
350 349 348 347 347 346 345 345 345 342 340 341 342 341 343 345 345 346 349 350 348 348 348 346 345 344 344 346 348 349 350 352 353 350 345 345 344 340 338 338 336 333 331 329 328 326 324 322 321 319 317 317 317 317 317 316 315 315 313 311 309 306 303 301 297 293 292 293 293 294 295 293 289 283 279 277 275 275 275 275 273 271 270 270 271 273
351 350 349 348 347 346 346 346 345 343 341 342 343 343 345 347 346 346 349 350 350 349 348 346 345 345 345 346 348 349 350 353 355 353 348 348 346 342 340 339 337 336 334 332 331 329 327 325 323 321 320 319 319 319 318 317 315 314 311 308 306 303 301 300 296 292 291 291 292 294 294 293 289 285 281 279 279 279 279 277 276 276 277 279 281 282
351 350 349 348 348 347 346 346 345 344 343 342 343 344 346 347 347 347 349 350 349 348 347 347 346 346 346 347 348 349 350 352 356 356 352 349 346 343 340 339 338 337 335 333 331 329 327 325 324 322 321 320 320 319 317 316 314 313 309 306 303 300 298 298 294 290 290 291 292 294 295 293 289 283 279 279 280 281 281 282 285 287 288 289 289 287
351 351 350 349 349 349 347 346 345 344 342 342 344 346 347 347 347 347 348 349 349 348 349 348 347 347 346 347 348 350 350 351 354 357 355 350 348 344 341 340 339 338 336 334 332 330 329 326 324 323 321 320 318 316 314 313 311 309 307 304 301 298 296 295 292 289 289 291 293 295 296 292 286 280 279 282 284 285 288 291 293 295 295 294 292 290
351 351 350 350 349 349 348 348 346 344 342 343 345 346 347 348 347 347 348 349 350 350 350 349 348 347 346 347 349 351 351 350 351 354 354 350 349 347 344 341 340 338 337 335 333 331 329 327 325 322 320 318 316 314 312 310 307 305 303 300 298 295 292 291 290 288 288 290 294 297 295 288 282 280 285 288 289 292 295 298 299 298 297 297 297 300
350 351 351 350 350 349 348 348 347 345 344 345 345 346 347 348 348 349 349 350 350 351 351 349 348 347 346 347 349 351 352 350 349 349 350 349 349 348 345 342 340 339 339 338 336 333 330 328 326 324 322 320 318 316 313 310 306 303 300 297 295 292 287 287 287 286 288 293 297 297 290 283 282 286 290 291 294 298 301 302 301 302 304 310 318 322
350 350 351 350 351 350 347 346 346 346 346 347 347 346 347 349 350 350 350 350 350 351 351 350 349 348 347 347 348 350 351 351 348 347 348 348 348 346 344 342 341 342 342 341 339 335 333 332 331 329 326 324 321 319 317 314 311 307 300 295 292 288 285 286 285 285 290 297 298 292 284 282 287 291 293 295 300 305 306 305 309 320 337 340 334 329
349 350 351 350 350 351 348 346 346 347 347 347 347 348 349 351 351 350 350 351 351 350 350 350 349 348 347 347 347 349 350 351 350 348 346 347 346 345 343 342 343 344 344 343 340 337 337 337 336 333 329 327 326 325 323 321 318 312 304 297 291 288 288 286 283 288 297 301 295 284 281 288 293 295 298 302 307 311 319 343 10 25 14 346 332 329
349 350 351 351 351 351 349 347 347 348 347 347 348 349 351 351 351 350 350 351 351 350 350 350 349 349 347 346 347 348 349 350 350 348 345 345 345 343 343 344 344 345 345 344 342 341 341 341 340 338 336 334 334 332 330 326 322 316 308 300 294 293 291 284 285 297 304 299 288 281 287 297 298 300 306 311 321 43 72 60 52 56 25 349 341 340
349 350 351 351 352 351 349 348 349 349 348 348 349 349 350 351 351 350 350 350 350 350 350 349 349 349 348 346 347 348 348 349 350 348 344 343 343 343 343 344 345 345 346 345 344 344 344 345 345 344 344 342 341 339 337 334 330 323 315 308 304 301 293 288 297 307 306 293 283 286 298 304 305 307 315 7 98 87 69 60 66 48 354 349 349 348
349 350 350 351 351 351 350 349 350 350 348 348 348 349 349 350 350 350 350 350 350 350 350 350 349 349 348 347 346 347 347 347 348 348 345 342 342 343 344 345 345 346 346 346 346 347 347 347 348 349 349 348 347 347 347 346 345 342 333 326 323 314 303 307 313 313 301 286 286 299 309 311 309 313 29 110 98 71 56 58 47 346 343 348 353 353
349 349 350 350 350 351 351 351 350 350 349 348 348 348 349 350 350 349 349 350 350 350 350 350 349 349 348 347 346 346 347 346 346 347 346 342 341 342 343 345 345 346 346 347 348 349 349 349 350 352 353 352 352 353 355 357 356 352 347 346 346 336 324 325 325 314 295 290 302 313 317 312 303 209 126 114 85 57 57 60 344 327 338 349 356 359
348 348 349 350 350 350 350 350 351 351 349 348 347 348 348 349 349 349 349 350 350 351 351 351 350 349 348 347 346 345 346 346 345 346 346 343 340 341 343 346 346 346 347 348 348 349 350 350 351 353 355 355 355 355 356 357 355 354 357 3 1 346 338 337 332 311 296 307 320 324 315 256 177 148 139 117 72 57 70 82 296 319 341 355 1 2
348 348 348 349 349 349 350 350 350 351 350 348 348 349 348 349 349 350 350 350 351 351 352 351 351 349 348 347 346 345 345 345 345 346 346 343 340 340 343 346 347 346 346 348 348 349 350 351 351 354 356 357 357 358 358 358 359 2 7 7 356 348 347 345 332 308 311 327 332 324 218 178 163 155 147 117 67 61 66 275 289 320 344 356 358 1
348 348 348 348 349 349 350 350 350 350 350 350 350 350 349 349 350 350 350 351 351 351 351 351 351 351 350 348 347 346 345 344 344 345 346 343 339 338 341 344 346 346 347 349 349 349 349 350 352 354 356 357 358 360 2 4 6 7 7 0 352 353 356 352 329 324 335 340 340 279 181 173 166 162 152 115 71 65 53 288 285 315 341 349 349 354
348 348 348 348 349 349 350 351 350 350 350 350 350 350 350 350 350 351 351 351 351 351 350 350 350 350 350 350 348 346 345 344 343 344 345 343 339 337 339 343 345 347 348 349 349 348 349 350 351 353 356 357 358 359 1 4 5 2 359 354 352 358 8 5 342 349 350 350 353 166 167 158 154 159 159 145 70 52 38 326 296 318 340 345 344 346
Height
5753 5749 5746 5742 5739 5736 5733 5730 5726 5723 5720 5716 5713 5710 5707 5704 5701 5697 5694 5690 5687 5684 5681 5677 5673 5668 5665 5661 5656 5651 5646 5641 5636 5631 5627 5622 5618 5614 5610 5606 5602 5597 5593 5589 5585 5582 5578 5574 5571 5567 5564 5561 5558 5555 5552 5549 5546 5544 5543 5540 5538 5536 5535 5533 5531 5530 5530 5528 5527 5526 5526 5525 5524 5524 5525 5525 5525 5526 5526 5526 5527 5528 5529 5531 5532 5533
5750 5746 5743 5740 5737 5733 5729 5726 5723 5720 5717 5713 5710 5706 5703 5699 5697 5694 5689 5686 5682 5679 5675 5670 5666 5662 5659 5655 5650 5644 5639 5633 5628 5623 5618 5614 5609 5604 5600 5596 5592 5587 5583 5578 5574 5570 5566 5563 5559 5556 5553 5549 5546 5543 5539 5536 5533 5530 5528 5526 5523 5522 5521 5519 5518 5517 5516 5516 5515 5514 5513 5512 5513 5513 5513 5513 5513 5514 5515 5516 5517 5518 5519 5520 5522 5523
5747 5744 5740 5737 5733 5730 5726 5723 5720 5717 5713 5710 5706 5702 5699 5695 5692 5690 5685 5680 5676 5672 5668 5664 5660 5656 5653 5650 5644 5638 5632 5626 5620 5615 5610 5606 5601 5596 5591 5586 5582 5576 5572 5568 5563 5559 5555 5551 5547 5543 5540 5536 5532 5529 5525 5521 5518 5516 5514 5511 5508 5506 5505 5504 5504 5504 5503 5502 5502 5501 5500 5500 5500 5500 5500 5501 5502 5502 5504 5505 5507 5508 5508 5510 5512 5513
5744 5741 5737 5734 5730 5727 5724 5720 5717 5713 5709 5706 5702 5698 5695 5691 5686 5684 5680 5675 5670 5666 5662 5658 5655 5652 5647 5644 5639 5631 5625 5620 5615 5610 5605 5599 5593 5587 5582 5576 5571 5566 5561 5556 5552 5546 5543 5539 5535 5531 5528 5524 5520 5516 5512 5507 5503 5500 5498 5496 5493 5491 5489 5488 5488 5488 5488 5487 5487 5487 5487 5487 5487 5488 5488 5488 5489 5490 5491 5494 5495 5497 5498 5499 5501 5503
5741 5738 5734 5731 5728 5724 5721 5717 5713 5710 5706 5703 5699 5695 5691 5687 5682 5677 5674 5671 5666 5661 5656 5651 5648 5646 5640 5636 5633 5626 5618 5613 5608 5602 5595 5589 5583 5577 5571 5565 5560 5554 5549 5544 5539 5534 5530 5525 5520 5517 5514 5509 5506 5502 5498 5494 5490 5486 5482 5480 5477 5474 5473 5472 5471 5471 5471 5471 5472 5472 5473 5474 5474 5474 5475 5476 5476 5476 5478 5481 5483 5485 5487 5488 5490 5492
5739 5735 5732 5728 5725 5721 5717 5714 5710 5706 5703 5699 5695 5691 5686 5682 5679 5674 5669 5666 5661 5656 5650 5643 5638 5638 5635 5629 5625 5619 5610 5604 5599 5592 5586 5580 5575 5569 5562 5556 5550 5544 5538 5532 5527 5521 5515 5510 5505 5501 5497 5492 5488 5485 5481 5476 5472 5469 5466 5463 5460 5458 5455 5454 5453 5453 5453 5454 5455 5457 5459 5460 5460 5460 5461 5463 5463 5463 5465 5468 5470 5473 5475 5477 5479 5481
5737 5733 5730 5726 5722 5718 5714 5710 5707 5704 5700 5695 5690 5687 5682 5678 5674 5671 5666 5661 5657 5652 5646 5640 5632 5629 5627 5620 5615 5610 5601 5595 5591 5584 5579 5574 5567 5561 5554 5547 5540 5533 5527 5520 5514 5508 5501 5495 5490 5486 5481 5476 5470 5466 5462 5458 5452 5449 5447 5443 5441 5438 5438 5437 5436 5435 5435 5435 5437 5440 5442 5444 5445 5445 5447 5448 5449 5450 5452 5454 5457 5460 5462 5465 5467 5470
5735 5731 5727 5723 5719 5715 5711 5708 5704 5700 5696 5692 5687 5683 5679 5675 5670 5667 5663 5657 5653 5649 5642 5634 5625 5619 5618 5610 5602 5601 5594 5588 5584 5577 5571 5566 5558 5551 5544 5537 5529 5521 5514 5506 5499 5494 5488 5481 5476 5470 5465 5461 5454 5448 5444 5441 5435 5431 5428 5424 5420 5419 5419 5419 5419 5418 5418 5417 5418 5420 5423 5426 5428 5429 5431 5432 5434 5437 5439 5441 5443 5446 5449 5452 5456 5459
5732 5728 5724 5720 5716 5712 5708 5704 5700 5696 5692 5688 5684 5680 5675 5672 5668 5663 5659 5654 5649 5644 5636 5627 5618 5610 5610 5607 5595 5592 5589 5580 5574 5568 5561 5555 5548 5540 5532 5525 5518 5509 5501 5493 5485 5478 5472 5466 5461 5455 5448 5443 5437 5431 5426 5423 5418 5414 5411 5407 5404 5402 5401 5400 5399 5399 5400 5401 5401 5403 5405 5406 5409 5411 5414 5416 5418 5422 5425 5427 5430 5433 5436 5439 5443 5446
5729 5725 5721 5717 5713 5708 5704 5700 5695 5691 5688 5684 5680 5676 5671 5666 5663 5658 5653 5647 5642 5638 5631 5624 5617 5604 5601 5603 5592 5583 5579 5571 5563 5557 5550 5544 5536 5528 5521 5514 5505 5496 5487 5479 5471 5464 5457 5451 5445 5439 5433 5426 5420 5415 5409 5405 5402 5398 5395 5392 5390 5388 5386 5384 5383 5382 5383 5384 5385 5386 5387 5388 5389 5392 5396 5398 5401 5405 5409 5412 5416 5419 5422 5426 5429 5433
5727 5722 5718 5714 5709 5705 5700 5696 5692 5688 5683 5679 5674 5670 5666 5660 5656 5651 5647 5641 5636 5635 5630 5623 5616 5602 5592 5593 5588 5577 5571 5563 5554 5546 5539 5532 5525 5517 5510 5503 5494 5483 5474 5464 5456 5450 5444 5439 5433 5425 5419 5412 5406 5401 5396 5391 5388 5385 5383 5381 5379 5378 5375 5372 5371 5370 5370 5371 5370 5370 5370 5371 5372 5374 5377 5381 5384 5388 5392 5396 5401 5405 5409 5412 5416 5420
5723 5719 5714 5711 5706 5700 5696 5692 5687 5682 5677 5672 5667 5662 5659 5655 5652 5647 5643 5638 5633 5630 5628 5620 5612 5603 5591 5584 5580 5574 5566 5557 5549 5541 5531 5523 5516 5508 5501 5493 5482 5469 5458 5449 5440 5434 5428 5423 5419 5413 5406 5400 5395 5390 5386 5382 5379 5376 5375 5373 5371 5370 5367 5364 5363 5362 5362 5361 5360 5358 5358 5358 5358 5358 5360 5364 5368 5372 5375 5380 5385 5390 5394 5399 5403 5406
5720 5715 5710 5706 5702 5696 5691 5686 5682 5677 5671 5667 5662 5656 5651 5648 5646 5642 5637 5633 5629 5626 5623 5615 5606 5599 5591 5583 5576 5570 5562 5552 5543 5533 5522 5514 5507 5498 5489 5479 5468 5456 5444 5434 5426 5421 5415 5409 5404 5400 5394 5389 5386 5381 5377 5375 5372 5370 5369 5366 5364 5362 5360 5358 5356 5355 5354 5353 5352 5350 5350 5349 5349 5348 5348 5350 5353 5357 5360 5364 5369 5374 5378 5384 5389 5393
5716 5712 5706 5701 5697 5691 5686 5681 5676 5672 5667 5661 5656 5650 5644 5639 5635 5632 5626 5620 5617 5616 5615 5610 5600 5591 5584 5578 5570 5563 5554 5544 5534 5522 5511 5503 5494 5484 5476 5466 5456 5445 5434 5425 5418 5413 5405 5398 5392 5387 5382 5378 5376 5374 5371 5369 5367 5364 5363 5360 5358 5356 5354 5352 5350 5349 5348 5347 5345 5344 5343 5343 5341 5340 5340 5340 5342 5344 5347 5351 5355 5358 5363 5369 5375 5379
5712 5708 5704 5699 5693 5688 5683 5678 5672 5667 5662 5657 5652 5646 5640 5634 5628 5623 5617 5610 5603 5600 5600 5597 5591 5581 5572 5567 5561 5553 5545 5535 5523 5511 5500 5493 5486 5476 5467 5456 5444 5434 5423 5414 5408 5402 5394 5388 5383 5378 5374 5370 5368 5367 5365 5363 5361 5359 5357 5355 5353 5351 5349 5347 5345 5344 5343 5341 5340 5338 5337 5336 5335 5334 5333 5333 5333 5334 5336 5340 5344 5347 5350 5355 5360 5365
5710 5705 5701 5696 5692 5687 5681 5676 5671 5665 5660 5654 5649 5643 5636 5631 5626 5621 5615 5607 5596 5590 5588 5586 5582 5576 5567 5560 5553 5543 5534 5525 5512 5500 5490 5483 5475 5465 5454 5443 5432 5420 5410 5402 5395 5389 5384 5379 5374 5370 5367 5365 5363 5362 5359 5357 5356 5354 5351 5349 5348 5346 5344 5342 5340 5338 5337 5336 5334 5333 5331 5330 5329 5327 5327 5326 5326 5326 5327 5329 5333 5336 5339 5342 5347 5352
5709 5704 5698 5694 5690 5685 5678 5672 5667 5663 5657 5651 5645 5639 5633 5627 5621 5615 5610 5605 5596 5587 5582 5578 5573 5567 5560 5550 5541 5531 5522 5513 5501 5487 5477 5468 5456 5446 5437 5427 5418 5406 5397 5391 5384 5378 5374 5370 5367 5364 5361 5360 5358 5356 5354 5352 5350 5348 5346 5343 5342 5340 5338 5336 5335 5333 5331 5330 5329 5327 5326 5324 5323 5322 5320 5320 5320 5320 5320 5321 5322 5325 5328 5331 5334 5338
5707 5703 5698 5692 5687 5682 5677 5670 5665 5660 5654 5647 5641 5636 5630 5622 5614 5607 5601 5595 5589 5579 5573 5570 5562 5555 5549 5539 5528 5520 5509 5499 5486 5472 5462 5454 5443 5432 5421 5412 5404 5394 5386 5381 5375 5369 5365 5363 5361 5358 5356 5355 5353 5351 5349 5347 5345 5343 5340 5338 5336 5334 5332 5330 5329 5327 5326 5324 5322 5321 5320 5318 5317 5316 5315 5314 5314 5314 5314 5315 5315 5316 5318 5320 5322 5325
5704 5700 5695 5690 5684 5679 5674 5667 5661 5656 5650 5644 5638 5632 5624 5616 5608 5604 5597 5587 5579 5568 5559 5558 5557 5551 5543 5531 5519 5509 5497 5484 5473 5462 5452 5443 5432 5420 5409 5399 5393 5386 5378 5372 5367 5362 5359 5357 5354 5353 5351 5350 5348 5346 5344 5342 5340 5338 5336 5333 5330 5329 5327 5324 5323 5321 5320 5318 5316 5315 5314 5312 5311 5310 5309 5309 5308 5308 5309 5309 5309 5309 5310 5312 5313 5315
5701 5696 5692 5687 5681 5676 5671 5665 5658 5652 5647 5641 5634 5626 5620 5613 5604 5600 5596 5586 5576 5564 5551 5544 5546 5547 5537 5522 5510 5499 5487 5475 5463 5453 5444 5432 5421 5411 5400 5390 5383 5377 5370 5364 5360 5356 5352 5351 5349 5348 5346 5345 5343 5341 5339 5338 5335 5333 5331 5328 5325 5323 5321 5319 5317 5315 5313 5312 5311 5309 5308 5307 5306 5305 5304 5304 5304 5303 5304 5304 5304 5304 5304 5305 5306 5308
5698 5693 5689 5685 5680 5674 5668 5662 5657 5651 5643 5636 5629 5621 5615 5609 5601 5595 5592 5586 5576 5565 5550 5535 5533 5538 5529 5513 5502 5491 5479 5469 5456 5444 5434 5422 5411 5401 5392 5383 5375 5369 5363 5358 5354 5350 5347 5346 5345 5343 5342 5340 5339 5337 5335 5334 5331 5328 5326 5323 5320 5317 5315 5313 5311 5309 5308 5306 5305 5304 5302 5301 5300 5300 5299 5299 5299 5299 5299 5299 5299 5299 5300 5300 5301 5302
5695 5690 5686 5682 5677 5672 5667 5661 5655 5650 5642 5634 5627 5618 5610 5603 5595 5588 5585 5583 5576 5565 5553 5536 5526 5529 5522 5505 5496 5487 5473 5462 5451 5437 5424 5412 5401 5391 5382 5375 5368 5361 5357 5353 5349 5346 5343 5342 5340 5339 5338 5336 5335 5333 5331 5329 5326 5324 5321 5318 5315 5312 5310 5308 5306 5304 5302 5301 5300 5299 5298 5297 5296 5295 5294 5294 5294 5294 5294 5294 5294 5295 5295 5295 5296 5297
5692 5687 5683 5678 5673 5668 5664 5658 5652 5646 5639 5632 5626 5618 5610 5602 5594 5584 5575 5571 5568 5561 5553 5539 5525 5524 5521 5503 5490 5481 5467 5455 5444 5429 5414 5402 5392 5383 5374 5368 5362 5356 5352 5349 5346 5342 5340 5339 5337 5336 5335 5333 5331 5329 5326 5324 5321 5318 5315 5312 5310 5307 5305 5303 5301 5299 5297 5296 5295 5294 5294 5293 5292 5291 5290 5289 5289 5289 5289 5289 5289 5289 5290 5291 5291 5292
5688 5684 5679 5675 5671 5667 5662 5657 5651 5645 5637 5630 5624 5616 5609 5601 5593 5586 5575 5565 5558 5549 5542 5531 5516 5513 5512 5498 5484 5474 5460 5446 5434 5420 5407 5394 5384 5376 5369 5362 5357 5352 5348 5345 5342 5340 5338 5336 5334 5332 5331 5329 5328 5326 5323 5320 5317 5313 5310 5307 5305 5302 5300 5298 5296 5295 5293 5292 5291 5290 5289 5288 5288 5287 5286 5286 5285 5284 5284 5284 5284 5284 5285 5286 5287 5287
5684 5678 5672 5668 5664 5661 5657 5652 5646 5640 5633 5625 5618 5609 5602 5595 5588 5581 5574 5564 5552 5542 5534 5522 5506 5502 5500 5487 5474 5464 5449 5435 5423 5411 5400 5388 5377 5369 5363 5357 5353 5349 5345 5342 5339 5336 5334 5332 5330 5328 5326 5325 5323 5321 5319 5316 5313 5309 5306 5302 5300 5297 5295 5293 5291 5290 5289 5287 5287 5286 5285 5284 5283 5282 5282 5281 5281 5280 5280 5280 5280 5280 5281 5281 5282 5283
5682 5675 5668 5660 5653 5647 5643 5638 5633 5628 5624 5619 5612 5603 5594 5589 5583 5576 5568 5558 5546 5536 5532 5520 5499 5491 5490 5477 5463 5453 5438 5423 5412 5401 5391 5382 5372 5364 5358 5353 5349 5346 5342 5339 5335 5333 5331 5329 5326 5324 5322 5320 5318 5316 5314 5311 5308 5305 5302 5298 5295 5292 5290 5288 5286 5285 5284 5283 5282 5281 5280 5279 5278 5277 5277 5277 5276 5276 5276 5276 5276 5276 5277 5277 5277 5278
5680 5673 5667 5659 5651 5644 5638 5633 5628 5623 5619 5614 5609 5601 5592 5584 5578 5572 5564 5556 5543 5530 5526 5519 5498 5481 5476 5466 5451 5440 5427 5413 5401 5391 5384 5376 5367 5360 5354 5350 5346 5343 5339 5336 5332 5330 5327 5325 5323 5321 5318 5316 5314 5312 5309 5306 5303 5299 5297 5294 5291 5288 5286 5283 5281 5280 5279 5277 5276 5276 5275 5274 5273 5273 5272 5272 5271 5271 5271 5271 5271 5272 5272 5272 5272 5273
5678 5671 5665 5659 5652 5645 5639 5633 5627 5621 5616 5610 5605 5600 5592 5581 5572 5565 5558 5550 5538 5523 5514 5512 5500 5481 5468 5456 5440 5426 5414 5403 5394 5385 5376 5369 5362 5355 5349 5346 5343 5340 5337 5333 5330 5326 5324 5321 5319 5317 5315 5312 5310 5308 5305 5302 5299 5295 5291 5289 5286 5284 5282 5279 5277 5275 5274 5272 5271 5270 5269 5268 5267 5267 5267 5266 5266 5266 5266 5266 5266 5266 5267 5267 5267 5267
5675 5670 5664 5658 5652 5644 5638 5633 5626 5619 5613 5607 5602 5596 5589 5580 5568 5561 5552 5539 5528 5518 5506 5498 5492 5479 5463 5449 5433 5420 5408 5396 5387 5379 5370 5363 5358 5353 5347 5343 5340 5337 5333 5330 5327 5324 5320 5318 5315 5313 5311 5308 5305 5303 5300 5298 5295 5292 5288 5285 5282 5280 5277 5275 5273 5271 5269 5267 5266 5264 5263 5262 5261 5261 5261 5260 5260 5260 5260 5260 5260 5260 5260 5261 5261 5261
5672 5667 5661 5656 5650 5643 5636 5630 5623 5617 5611 5605 5600 5592 5585 5577 5566 5557 5551 5538 5525 5518 5506 5492 5482 5472 5457 5441 5428 5417 5406 5393 5383 5375 5367 5360 5356 5350 5345 5341 5337 5334 5330 5327 5324 5321 5318 5315 5312 5309 5306 5303 5300 5298 5295 5293 5290 5287 5285 5281 5278 5275 5272 5270 5268 5266 5264 5262 5261 5259 5257 5256 5256 5255 5255 5254 5254 5254 5254 5254 5254 5254 5254 5254 5254 5254
5669 5663 5658 5653 5649 5642 5635 5628 5620 5613 5606 5601 5595 5587 5579 5573 5563 5551 5546 5537 5521 5510 5501 5488 5475 5464 5452 5437 5425 5414 5403 5391 5380 5370 5362 5357 5353 5347 5342 5338 5334 5331 5328 5325 5321 5318 5315 5312 5309 5305 5302 5299 5296 5293 5290 5288 5285 5283 5280 5277 5274 5270 5267 5265 5263 5260 5259 5257 5255 5254 5252 5251 5250 5249 5249 5248 5248 5247 5247 5247 5247 5247 5247 5247 5247 5246
5666 5661 5655 5649 5644 5637 5630 5625 5618 5610 5603 5595 5588 5580 5573 5569 5560 5547 5537 5527 5512 5498 5489 5479 5468 5455 5444 5434 5423 5412 5400 5386 5374 5364 5355 5350 5349 5345 5340 5336 5332 5328 5325 5322 5319 5315 5312 5308 5305 5302 5298 5295 5291 5288 5285 5282 5279 5277 5274 5272 5269 5265 5262 5259 5257 5255 5253 5252 5250 5248 5246 5245 5244 5243 5242 5242 5241 5241 5240 5240 5240 5239 5239 5239 5239 5239
5664 5657 5651 5644 5638 5632 5625 5618 5611 5604 5597 5590 5583 5576 5568 5561 5554 5543 5532 5522 5510 5496 5482 5471 5461 5449 5438 5428 5416 5404 5391 5378 5367 5359 5349 5342 5342 5342 5338 5334 5330 5327 5323 5320 5317 5313 5309 5305 5301 5297 5294 5290 5286 5283 5279 5276 5273 5271 5268 5265 5263 5259 5256 5254 5251 5250 5248 5246 5244 5242 5241 5240 5238 5237 5236 5235 5235 5234 5233 5233 5232 5232 5232 5231 5231 5231
5659 5652 5646 5640 5634 5628 5621 5614 5607 5598 5590 5584 5578 5569 5560 5551 5543 5537 5528 5517 5508 5499 5486 5471 5458 5446 5434 5424 5411 5397 5385 5374 5364 5356 5348 5341 5336 5335 5334 5331 5327 5324 5322 5318 5315 5311 5306 5302 5298 5294 5290 5286 5282 5278 5274 5270 5267 5264 5261 5259 5256 5253 5250 5248 5246 5244 5241 5239 5238 5237 5235 5234 5233 5231 5230 5229 5228 5228 5227 5226 5226 5226 5225 5225 5225 5224
5655 5649 5642 5635 5628 5622 5615 5608 5600 5591 5582 5575 5569 5561 5554 5547 5539 5533 5528 5515 5500 5490 5478 5464 5452 5440 5429 5420 5409 5397 5385 5376 5366 5355 5347 5341 5336 5331 5329 5327 5323 5320 5317 5314 5310 5306 5302 5298 5293 5289 5285 5281 5277 5272 5268 5265 5261 5258 5255 5252 5249 5246 5243 5241 5239 5237 5235 5234 5232 5231 5229 5228 5227 5225 5224 5223 5222 5221 5221 5221 5220 5220 5219 5219 5218 5217
5652 5645 5637 5629 5622 5616 5609 5601 5593 5585 5577 5570 5563 5554 5546 5538 5527 5518 5514 5505 5489 5474 5463 5454 5446 5436 5424 5415 5406 5395 5385 5377 5368 5356 5345 5339 5335 5330 5326 5323 5320 5316 5312 5307 5304 5299 5295 5292 5287 5283 5279 5275 5271 5267 5263 5259 5255 5251 5248 5245 5242 5239 5237 5235 5233 5231 5229 5228 5227 5225 5224 5222 5221 5220 5219 5218 5217 5216 5216 5215 5215 5214 5213 5212 5212 5211
5647 5640 5632 5625 5617 5609 5602 5597 5591 5582 5573 5563 5555 5545 5535 5527 5517 5506 5498 5491 5479 5469 5460 5451 5441 5430 5418 5407 5398 5389 5381 5375 5368 5358 5346 5339 5334 5329 5325 5321 5316 5312 5308 5303 5299 5294 5290 5285 5281 5277 5273 5269 5265 5260 5256 5252 5249 5245 5242 5238 5235 5233 5231 5229 5226 5224 5223 5222 5221 5220 5219 5217 5216 5215 5214 5213 5212 5211 5211 5210 5209 5208 5207 5207 5206 5205
5644 5637 5630 5622 5615 5606 5597 5589 5583 5575 5567 5559 5552 5543 5533 5525 5517 5507 5498 5489 5479 5471 5462 5450 5435 5422 5409 5398 5389 5380 5371 5365 5361 5354 5345 5339 5334 5329 5324 5320 5314 5309 5304 5299 5294 5290 5286 5281 5276 5271 5266 5262 5258 5253 5248 5245 5242 5239 5235 5231 5229 5226 5224 5223 5220 5218 5218 5217 5215 5215 5213 5212 5211 5210 5210 5209 5208 5207 5206 5205 5204 5203 5202 5201 5200 5199
5644 5636 5627 5619 5611 5603 5594 5585 5576 5568 5560 5553 5548 5540 5531 5522 5513 5504 5498 5492 5482 5469 5455 5441 5427 5414 5402 5391 5382 5371 5360 5352 5350 5347 5342 5337 5333 5327 5322 5317 5312 5307 5301 5295 5289 5284 5280 5276 5271 5266 5260 5255 5250 5245 5240 5236 5233 5230 5227 5224 5222 5219 5218 5216 5214 5213 5212 5211 5210 5209 5208 5207 5206 5206 5205 5205 5204 5203 5202 5201 5200 5199 5197 5196 5195 5194
5641 5633 5625 5616 5607 5599 5592 5585 5577 5567 5557 5547 5540 5535 5529 5521 5510 5498 5488 5480 5471 5457 5443 5430 5419 5407 5396 5386 5378 5368 5356 5345 5339 5338 5337 5333 5330 5325 5319 5313 5308 5303 5297 5292 5286 5280 5275 5270 5264 5259 5253 5247 5242 5236 5231 5227 5224 5221 5219 5217 5215 5213 5212 5210 5208 5208 5208 5207 5206 5205 5203 5203 5202 5202 5202 5201 5200 5199 5198 5197 5196 5195 5194 5192 5191 5190
5637 5630 5622 5613 5604 5595 5586 5580 5575 5568 5559 5549 5538 5529 5522 5516 5507 5494 5479 5465 5455 5446 5436 5425 5414 5402 5391 5381 5372 5364 5357 5348 5339 5334 5332 5328 5325 5322 5317 5311 5305 5299 5293 5287 5281 5275 5269 5263 5256 5250 5243 5237 5232 5227 5223 5218 5215 5212 5210 5208 5208 5207 5206 5204 5204 5204 5203 5203 5202 5201 5200 5199 5199 5199 5198 5197 5196 5196 5195 5194 5193 5192 5191 5190 5189 5188
5632 5624 5617 5609 5601 5592 5582 5575 5570 5562 5553 5546 5537 5527 5516 5506 5496 5486 5475 5462 5450 5440 5432 5423 5411 5399 5388 5378 5370 5363 5357 5350 5341 5333 5329 5324 5320 5316 5312 5307 5301 5295 5289 5283 5276 5269 5263 5256 5249 5242 5235 5229 5223 5219 5214 5210 5207 5204 5201 5201 5201 5201 5200 5200 5200 5200 5200 5199 5198 5197 5197 5197 5196 5196 5195 5195 5194 5193 5192 5192 5191 5190 5189 5188 5188 5187
5627 5619 5611 5602 5594 5587 5577 5565 5557 5549 5541 5534 5528 5520 5509 5497 5485 5476 5468 5459 5448 5437 5428 5419 5408 5397 5385 5377 5370 5363 5356 5349 5341 5333 5327 5322 5317 5313 5308 5303 5297 5291 5284 5279 5272 5265 5257 5250 5244 5236 5229 5222 5216 5211 5207 5203 5200 5197 5195 5195 5195 5196 5196 5196 5197 5197 5196 5196 5195 5194 5194 5194 5194 5193 5193 5192 5192 5191 5191 5190 5190 5189 5189 5188 5188 5187
5624 5615 5607 5597 5587 5578 5570 5563 5555 5547 5537 5526 5515 5506 5499 5492 5483 5472 5462 5454 5445 5435 5424 5414 5406 5397 5386 5375 5367 5360 5352 5345 5338 5331 5324 5320 5315 5310 5305 5299 5293 5288 5282 5275 5268 5260 5253 5246 5239 5232 5224 5217 5211 5206 5201 5197 5194 5192 5190 5190 5191 5192 5193 5193 5194 5194 5194 5193 5192 5192 5192 5192 5192 5191 5191 5190 5190 5190 5190 5190 5189 5189 5189 5188 5188 5187
5621 5612 5605 5597 5587 5578 5570 5562 5554 5543 5532 5522 5513 5504 5496 5489 5480 5471 5460 5450 5441 5432 5422 5412 5402 5394 5384 5372 5363 5355 5347 5340 5335 5328 5321 5316 5312 5307 5301 5295 5289 5284 5278 5272 5264 5256 5249 5243 5236 5229 5222 5215 5208 5203 5197 5193 5190 5189 5188 5188 5189 5190 5190 5191 5192 5192 5191 5191 5191 5191 5191 5190 5190 5189 5189 5189 5189 5189 5189 5189 5189 5189 5189 5188 5188 5187
5619 5610 5603 5596 5589 5582 5572 5560 5550 5540 5531 5522 5513 5504 5494 5485 5476 5468 5461 5452 5441 5431 5421 5411 5399 5389 5379 5368 5359 5351 5343 5335 5330 5325 5318 5312 5308 5303 5298 5292 5287 5281 5275 5269 5262 5255 5247 5240 5233 5227 5220 5214 5208 5202 5197 5193 5190 5189 5188 5188 5188 5188 5189 5190 5190 5190 5190 5190 5190 5190 5189 5189 5189 5188 5188 5189 5189 5190 5190 5190 5190 5190 5189 5189 5188 5187
5618 5611 5603 5595 5587 5581 5574 5565 5557 5548 5536 5525 5516 5507 5498 5490 5481 5471 5462 5454 5444 5432 5420 5408 5396 5385 5376 5366 5356 5348 5341 5332 5325 5320 5315 5309 5303 5299 5293 5288 5283 5278 5272 5266 5259 5252 5246 5238 5232 5226 5220 5214 5208 5203 5199 5195 5192 5191 5189 5189 5188 5188 5189 5189 5189 5189 5189 5189 5189 5189 5188 5188 5188 5188 5188 5189 5190 5190 5190 5190 5190 5190 5190 5189 5188 5187
5616 5609 5603 5596 5588 5580 5573 5567 5560 5551 5541 5531 5521 5511 5502 5494 5486 5476 5464 5453 5443 5432 5420 5407 5395 5383 5373 5364 5354 5345 5338 5330 5322 5315 5310 5304 5299 5294 5289 5284 5279 5273 5268 5262 5256 5250 5244 5237 5230 5224 5219 5214 5209 5204 5200 5197 5195 5192 5191 5190 5189 5189 5189 5189 5189 5188 5188 5189 5188 5188 5187 5188 5188 5188 5189 5190 5190 5190 5190 5191 5191 5191 5190 5190 5189 5187
5612 5604 5597 5592 5586 5579 5571 5563 5556 5551 5544 5534 5522 5511 5501 5491 5482 5472 5460 5449 5437 5426 5417 5408 5398 5385 5371 5360 5351 5342 5334 5327 5319 5312 5305 5299 5294 5290 5286 5281 5276 5270 5265 5260 5253 5247 5241 5236 5229 5224 5219 5214 5210 5205 5202 5199 5196 5194 5192 5191 5191 5190 5189 5189 5188 5188 5188 5188 5188 5187 5187 5188 5188 5189 5190 5190 5191 5191 5191 5191 5191 5191 5191 5190 5189 5188
5608 5599 5591 5584 5577 5571 5563 5554 5545 5537 5531 5523 5514 5505 5494 5483 5474 5464 5454 5442 5430 5419 5410 5402 5394 5385 5373 5360 5348 5338 5330 5323 5316 5308 5302 5296 5290 5286 5282 5278 5274 5269 5263 5257 5251 5245 5240 5234 5228 5223 5219 5215 5210 5206 5203 5200 5198 5196 5194 5193 5192 5191 5190 5189 5189 5189 5189 5188 5187 5187 5188 5188 5189 5190 5190 5191 5191 5191 5192 5192 5192 5191 5191 5190 5189 5188
5605 5596 5588 5580 5571 5564 5556 5549 5540 5530 5521 5513 5506 5498 5489 5479 5469 5459 5448 5437 5427 5417 5405 5394 5383 5375 5368 5358 5347 5336 5326 5318 5311 5304 5299 5293 5287 5282 5278 5274 5270 5266 5261 5256 5250 5244 5239 5233 5228 5223 5218 5215 5211 5207 5204 5202 5199 5197 5195 5194 5192 5191 5190 5190 5190 5189 5189 5188 5187 5187 5188 5189 5190 5191 5191 5191 5192 5192 5192 5192 5192 5192 5191 5191 5189 5188